Location: Del Amo
(33.8464°N, 118.2104°W)
Time: 03:48:39
(UTC+00:00)

Vanguard 2 Rocket - Pass Details

Date: 19 September 2024
Orbit: 553 x 3299 km, 32.9° (Epoch: 05 October)

Event Time Altitude Azimuth Distance (km) Brightness Sun altitude
Rises 13:26:38 0° 283° (WNW) 5,608 - -3.5°
Exits shadow 13:27:08 - 283° (WNW) 5,498 10.3 -3.4°
Reaches altitude 10° 13:29:53 10° 280° (W) 4,912 10.0 -2.8°
Maximum altitude 13:44:47 57° 207° (SSW) 3,436 9.7 0.3°
Drops below altitude 10° 14:04:13 10° 135° (SE) 6,192 11.9 4.3°
Sets 14:08:59 0° 132° (SE) 7,090 12.3 5.3°
